Home   Weather   Limburg an der Lahn   Past weeks

Flag for Germany Past Weather in Limburg an der Lahn, Hesse, Germany — Yesterday and Last 2 Weeks

Now
19 °F

Sunny.


Feels Like: 11 °F
Forecast: 13 / 28 °F
Wind: 6 mph from Southeast

Location: Hessen

Current Time: Jan 22, 2017 at 9:15:17 am

Latest Report: Jan 22, 2017 at 8:20 am


Visibility: 10 mi

Pressure: 30.24 "Hg

Humidity: 73%

Dew Point: 12 °F

Location of Limburg an der LahnLocation

Past Weather in Limburg an der Lahn — Graph

°F

Limburg an der Lahn Temperature Yesterday

Maximum temperature yesterday: 32 °F (at 2:20 pm)
Minimum temperature yesterday: 21 °F (at 8:20 am)
Average temperature yesterday: 28 °F

High & Low Weather Summary for the Past Weeks

 TemperatureHumidityPressure
High37 °F (Jan 11, 4:50 pm)100% (Jan 7, 3:50 pm)30.57 "Hg (Jan 7, 3:50 pm)
Low16 °F (Jan 7, 8:20 am)37% (Jan 20, 9:50 am)29.39 "Hg (Jan 12, 8:50 pm)
Average27 °F89%30.16 "Hg
* Reported Jan 7 8:20 am — Jan 22 8:20 am, Limburg an der Lahn, Weather by CustomWeather, © 2017

Note: Actual official high and low records may vary slightly from our data, if they occured in-between our weather recording intervals... More about our weather records

Advertising

Limburg an der Lahn Weather History for the Previous 24 Hours

Scroll right to see more
 ConditionsComfort  
Time TempWeatherWind HumidityBarometerVisibility
8:20 am
Sun, Jan 22
19 °FSunny.6 mph73%30.24 "Hg10 mi
7:50 am21 °FClear.8 mph68%30.24 "Hg10 mi
5:20 pm
Sat, Jan 21
27 °FClear.12 mph74%30.30 "Hg10 mi
4:50 pm28 °FSunny.14 mph69%30.30 "Hg10 mi
4:20 pm28 °FSunny.15 mph69%30.30 "Hg10 mi
3:50 pm30 °FSunny.17 mph59%30.30 "Hg10 mi
3:20 pm30 °FSunny.17 mph59%30.30 "Hg10 mi
2:20 pm32 °FSunny.17 mph55%30.30 "Hg10 mi
1:20 pm30 °FSunny.17 mph55%30.33 "Hg10 mi
12:50 pm30 °FSunny.15 mph59%30.33 "Hg10 mi
12:20 pm30 °FSunny.12 mph59%30.33 "Hg10 mi
11:50 am30 °FSunny.18 mph64%30.36 "Hg10 mi
11:20 am28 °FSunny.20 mph74%30.36 "Hg10 mi
10:20 am28 °FSunny.18 mph74%30.36 "Hg10 mi
9:50 am27 °FSunny.17 mph74%30.36 "Hg10 mi
9:20 am25 °FSunny.17 mph74%30.36 "Hg10 mi
Weather by CustomWeather, © 2017

See weather overviewHow to use our weather pages